Vorticity
15 13 11 11 14 13 12 12 12 14 14 11 12 16 16 12 8 13 21 23 15 10 12 8 10 19 10
11 13 11 13 10 10 12 12 9 7 7 9 9 8 9 10 14 14 11 12 16 24 17 16 14 8 12
10 12 14 14 10 11 8 7 9 10 10 10 11 10 10 9 8 8 9 9 14 14 15 19 19 18 15
8 11 13 13 13 11 7 11 8 9 9 10 10 9 9 9 11 11 10 10 10 11 12 14 16 20 17
9 10 11 13 14 12 14 11 5 12 9 8 8 9 10 10 11 12 11 11 11 11 10 12 14 15 20
9 8 8 11 13 13 13 13 11 3 11 6 8 9 10 10 10 11 11 12 15 17 16 15 13 12 17
6 7 7 7 8 10 9 11 7 7 12 9 6 8 7 10 12 12 11 10 11 12 12 15 16 17 17
8 8 8 9 8 8 9 9 8 6 11 18 1 13 7 9 6 9 13 14 13 12 12 12 13 14 17
9 11 9 8 8 10 9 11 9 5 8 16 -2 18 12 12 10 8 10 14 16 16 17 15 12 14 17
9 10 9 10 11 11 11 9 8 7 9 11 7 10 14 12 13 8 10 17 15 15 17 19 15 17 17
10 13 11 10 11 12 11 10 9 8 10 12 9 10 10 12 10 8 9 17 11 13 13 15 20 17 21
7 9 10 10 11 12 13 12 11 10 12 11 9 11 8 9 11 9 8 13 7 10 12 19 23 24 20
12 15 16 15 13 14 14 14 12 12 11 13 9 10 7 11 12 12 7 8 7 2 29 27 24 26 23
19 19 19 17 15 15 14 12 12 12 11 12 10 10 10 13 15 13 9 9 2 7 20 16 15 19 27
18 18 18 16 16 15 13 13 12 13 12 12 12 10 11 12 18 13 11 13 13 2 24 -0 17 16 17
16 15 14 14 14 12 12 12 12 11 11 12 11 12 13 8 18 19 13 7 5 12 11 17 16 16 4
13 13 12 12 12 11 10 11 11 11 12 12 13 13 14 13 9 15 19 13 6 6 5 7 7 3 12
Height
3006 3005 3005 3004 3006 3006 3008 3010 3012 3012 3013 3015 3018 3021 3024 3027 3030 3033 3036 3040 3046 3050 3053 3058 3064 3070 3077
2994 2995 2994 2994 2995 2996 2997 2999 3000 3002 3002 3004 3006 3007 3008 3010 3012 3015 3019 3023 3026 3030 3034 3041 3044 3049 3057
2978 2983 2985 2986 2983 2985 2987 2987 2988 2990 2991 2992 2993 2995 2996 2997 2998 2999 3001 3003 3007 3009 3013 3018 3025 3030 3035
2965 2970 2974 2978 2974 2976 2976 2975 2977 2977 2979 2980 2980 2981 2981 2982 2983 2983 2984 2986 2987 2990 2994 2998 3003 3008 3014
2959 2958 2961 2964 2965 2965 2964 2967 2967 2968 2967 2968 2968 2969 2970 2969 2969 2969 2970 2971 2972 2973 2975 2977 2981 2986 2992
2951 2949 2949 2952 2953 2953 2953 2955 2957 2957 2954 2957 2956 2957 2958 2958 2958 2956 2955 2955 2955 2956 2958 2960 2962 2964 2968
2940 2940 2940 2940 2940 2943 2943 2942 2943 2943 2942 2943 2944 2944 2945 2945 2945 2944 2943 2941 2940 2940 2940 2941 2943 2944 2947
2930 2931 2931 2930 2929 2931 2931 2930 2930 2929 2929 2929 2929 2932 2931 2931 2932 2932 2931 2929 2927 2926 2924 2924 2924 2925 2926
2921 2920 2920 2919 2920 2919 2918 2918 2917 2916 2916 2915 2917 2917 2917 2918 2919 2919 2917 2914 2912 2910 2909 2908 2907 2906 2906
2910 2909 2909 2909 2910 2908 2907 2905 2904 2902 2905 2905 2904 2902 2900 2905 2905 2905 2902 2901 2898 2896 2893 2891 2891 2889 2887
2897 2898 2898 2897 2897 2898 2897 2894 2892 2889 2892 2894 2891 2889 2888 2886 2889 2889 2887 2887 2884 2882 2880 2877 2874 2873 2871
2886 2885 2885 2885 2884 2884 2884 2884 2882 2879 2883 2884 2877 2878 2877 2873 2872 2874 2872 2872 2870 2868 2865 2861 2858 2857 2856
2873 2873 2873 2872 2872 2872 2872 2871 2871 2870 2871 2870 2867 2866 2864 2861 2858 2858 2857 2857 2856 2854 2850 2846 2843 2841 2841
2861 2861 2860 2860 2860 2861 2860 2861 2859 2861 2861 2860 2857 2854 2852 2851 2847 2843 2845 2842 2844 2843 2840 2836 2833 2830 2829
2851 2850 2850 2850 2850 2850 2850 2850 2848 2849 2850 2850 2847 2843 2841 2839 2834 2833 2833 2831 2831 2830 2829 2824 2822 2821 2819
2844 2842 2841 2841 2841 2841 2840 2839 2838 2839 2837 2838 2835 2833 2831 2828 2825 2822 2821 2820 2819 2818 2816 2812 2810 2811 2809
2837 2835 2834 2833 2832 2832 2831 2829 2829 2828 2827 2826 2824 2821 2817 2813 2816 2814 2808 2808 2807 2805 2804 2801 2798 2798 2797